Kimball, NE

10:01 PM MDT on April 23, 2018 (GMT -0600)
Kimball Municipal-Arraj

Weather History for KIBM - December, 2011

Change the Weather History Date:

Friday, December 2, 2011

  Actual Average (KSNY) Record (KSNY)
Temperature  
Mean Temperature 19 °F -  
Max Temperature 33 °F 38 °F 67 °F (1949)
Min Temperature 5 °F 13 °F -6 °F (1985)
Degree Days  
Heating Degree Days 46    
Moisture  
Dew Point 16 °F    
Average Humidity 80    
Maximum Humidity 93    
Minimum Humidity 60    
Precipitation  
Precipitation 0.00 in - - ()
Sea Level Pressure  
Sea Level Pressure 29.92 in    
Wind  
Wind Speed 8 mph (SW)    
Max Wind Speed 14 mph    
Max Gust Speed -    
Visibility 10 miles    
Events      
Averages and records for this station are not official NWS values.
T = Trace of Precipitation, MM = Missing Value Source: NWS Daily Summary

Daily Weather History Graph

Daily Weather History Graph

Search for Another Location

Airport or City:

Astronomy

Dec. 02, 2011 Rise Set
Actual Time 8:01 AM CST 5:26 PM CST
Civil Twilight 7:30 AM CST 5:57 PM CST
Nautical Twilight 6:56 AM CST 6:31 PM CST
Astronomical Twilight 6:23 AM CST 7:04 PM CST
Moon 1:10 PM CST (12/2) 12:30 AM CST (12/2)
Length of Visible Light 10h 26m
Length of Day
9h 24m
First Quarter, 53% of the Moon is Illuminated
Dec 2
First Quarter
Dec 10
Full
Dec 17
Last Quarter
Dec 24
New
Jan 1
First Quarter

Hourly Weather History & Observations

Time (CST) Temp. Windchill Dew Point Humidity Pressure Visibility Wind Dir Wind Speed Gust Speed Precip Events Conditions
12:15 AM 8.6 °F - 5.0 °F 85% 30.29 in 10.0 mi Calm Calm - N/A   Clear
12:55 AM 14.0 °F 1.2 °F 12.2 °F 93% 30.24 in 10.0 mi SSW 10.4 mph - N/A   Overcast
1:15 AM 14.0 °F 0.5 °F 12.2 °F 93% 30.22 in 10.0 mi SSW 11.5 mph - N/A   Scattered Clouds
1:35 AM 14.0 °F 1.2 °F 12.2 °F 93% 30.21 in 7.0 mi SSW 10.4 mph - N/A   Clear
1:55 AM 14.0 °F 2.0 °F 12.2 °F 93% 30.19 in 10.0 mi SW 9.2 mph - N/A   Clear
2:15 AM 14.0 °F -0.8 °F 12.2 °F 93% 30.17 in 10.0 mi SSW 13.8 mph - N/A   Clear
2:35 AM 14.0 °F -0.2 °F 12.2 °F 93% 30.15 in 10.0 mi SSW 12.7 mph - N/A   Clear
2:55 AM 14.0 °F -0.8 °F 12.2 °F 93% 30.14 in 10.0 mi SSW 13.8 mph - N/A   Clear
3:15 AM 14.0 °F 0.5 °F 10.4 °F 86% 30.13 in 10.0 mi SSW 11.5 mph - N/A   Clear
3:35 AM 14.0 °F 0.5 °F 10.4 °F 86% 30.11 in 10.0 mi South 11.5 mph - N/A   Clear
3:55 AM 14.0 °F 1.2 °F 10.4 °F 86% 30.09 in 10.0 mi SSW 10.4 mph - N/A   Clear
4:15 AM 14.0 °F -0.2 °F 12.2 °F 93% 30.07 in 10.0 mi SSW 12.7 mph - N/A   Clear
4:35 AM 14.0 °F -0.2 °F 12.2 °F 93% 30.05 in 10.0 mi SSW 12.7 mph - N/A   Clear
4:55 AM 14.0 °F 0.5 °F 12.2 °F 93% 30.04 in 10.0 mi SSW 11.5 mph - N/A   Clear
5:15 AM 14.0 °F 0.5 °F 12.2 °F 93% 30.02 in 10.0 mi SSW 11.5 mph - N/A   Clear
5:35 AM 14.0 °F 1.2 °F 10.4 °F 86% 30.01 in 10.0 mi SW 10.4 mph - N/A   Clear
5:55 AM 12.2 °F -0.2 °F 10.4 °F 92% 29.99 in 10.0 mi SW 9.2 mph - N/A   Clear
6:35 AM 12.2 °F 0.7 °F 8.6 °F 85% 29.98 in 10.0 mi SSW 8.1 mph - N/A   Clear
6:55 AM 12.2 °F -1.8 °F 8.6 °F 85% 29.98 in 10.0 mi SW 11.5 mph - N/A   Clear
7:15 AM 10.4 °F -5.4 °F 8.6 °F 92% 29.96 in 10.0 mi SW 13.8 mph - N/A   Clear
7:35 AM 8.6 °F -4.7 °F 5.0 °F 85% 29.95 in 10.0 mi WSW 9.2 mph - N/A   Clear
7:55 AM 6.8 °F -2.0 °F 3.2 °F 85% 29.94 in 10.0 mi WSW 4.6 mph - N/A   Clear
8:15 AM 5.0 °F -5.6 °F 3.2 °F 92% 29.94 in 10.0 mi WSW 5.8 mph - N/A   Clear
8:35 AM 6.8 °F -2.0 °F 3.2 °F 85% 29.94 in 10.0 mi WSW 4.6 mph - N/A   Clear
8:55 AM 8.6 °F -4.7 °F 5.0 °F 85% 29.92 in 10.0 mi SW 9.2 mph - N/A   Clear
9:15 AM 10.4 °F -0.4 °F 8.6 °F 92% 29.91 in 10.0 mi SW 6.9 mph - N/A   Clear
9:35 AM 12.2 °F 4.3 °F 10.4 °F 92% 29.89 in 10.0 mi SSW 4.6 mph - N/A   Clear
9:55 AM 15.8 °F 6.1 °F 12.2 °F 86% 29.88 in 10.0 mi SSW 6.9 mph - N/A   Clear
10:15 AM 17.6 °F 5.7 °F 14.0 °F 86% 29.87 in 10.0 mi SSW 10.4 mph - N/A   Clear
10:35 AM 21.2 °F 10.9 °F 15.8 °F 80% 29.87 in 10.0 mi SSW 9.2 mph - N/A   Clear
10:55 AM 21.2 °F 10.1 °F 17.6 °F 86% 29.86 in 10.0 mi SSW 10.4 mph - N/A   Clear
11:15 AM 23.0 °F 13.1 °F 17.6 °F 80% 29.86 in 10.0 mi SW 9.2 mph - N/A   Clear
11:35 AM 24.8 °F 16.9 °F 19.4 °F 80% 29.85 in 10.0 mi SSW 6.9 mph - N/A   Clear
11:55 AM 26.6 °F 16.8 °F 19.4 °F 74% 29.84 in 10.0 mi SSW 10.4 mph - N/A   Clear
12:15 PM 28.4 °F 19.1 °F 19.4 °F 69% 29.83 in 10.0 mi SW 10.4 mph - N/A   Clear
12:35 PM 28.4 °F 19.7 °F 21.2 °F 74% 29.81 in 10.0 mi SW 9.2 mph - N/A   Clear
12:55 PM 30.2 °F 24.3 °F 21.2 °F 69% 29.80 in 10.0 mi SW 5.8 mph - N/A   Clear
1:15 PM 32.0 °F 25.6 °F 21.2 °F 64% 29.79 in 10.0 mi SW 6.9 mph - N/A   Clear
1:35 PM 32.0 °F 26.4 °F 23.0 °F 69% 29.78 in 10.0 mi SSW 5.8 mph - N/A   Mostly Cloudy
1:55 PM 32.0 °F 28.7 °F 23.0 °F 69% 29.77 in 10.0 mi SSW 3.5 mph - N/A   Overcast
2:15 PM 32.0 °F 27.5 °F 24.8 °F 75% 29.77 in 10.0 mi SSW 4.6 mph - N/A   Overcast
2:35 PM 32.0 °F 26.4 °F 24.8 °F 75% 29.77 in 10.0 mi SSW 5.8 mph - N/A   Overcast
2:55 PM 32.0 °F - 24.8 °F 75% 29.77 in 10.0 mi Calm Calm - N/A   Overcast
3:15 PM 32.0 °F - 24.8 °F 75% 29.78 in 10.0 mi Calm Calm - N/A   Overcast
3:35 PM 32.0 °F - 26.6 °F 80% 29.79 in 10.0 mi Calm Calm - N/A   Overcast
3:55 PM 32.0 °F 26.4 °F 24.8 °F 75% 29.77 in 10.0 mi North 5.8 mph - N/A   Overcast
4:15 PM 32.0 °F 27.5 °F 26.6 °F 80% 29.78 in 10.0 mi SSE 4.6 mph - N/A   Overcast
4:35 PM 32.0 °F - 26.6 °F 80% 29.79 in 10.0 mi Calm Calm - N/A   Overcast
4:55 PM 33.8 °F 28.6 °F 23.0 °F 65% 29.79 in 10.0 mi NNW 5.8 mph - N/A   Overcast
5:15 PM 33.8 °F 26.4 °F 23.0 °F 65% 29.79 in 10.0 mi North 9.2 mph - N/A   Overcast
5:35 PM 32.0 °F 24.2 °F 21.2 °F 64% 29.79 in 10.0 mi NNW 9.2 mph - N/A   Scattered Clouds
6:15 PM 32.0 °F 24.2 °F 19.4 °F 60% 29.81 in 10.0 mi North 9.2 mph - N/A   Mostly Cloudy
6:35 PM 30.2 °F 20.8 °F 19.4 °F 64% 29.81 in 10.0 mi NNW 11.5 mph - N/A   Scattered Clouds
6:55 PM 30.2 °F 20.8 °F 19.4 °F 64% 29.81 in 10.0 mi NNW 11.5 mph - N/A   Clear
7:15 PM 30.2 °F 21.3 °F 19.4 °F 64% 29.83 in 10.0 mi North 10.4 mph - N/A   Clear
7:35 PM 28.4 °F 19.7 °F 19.4 °F 69% 29.83 in 10.0 mi North 9.2 mph - N/A   Clear
7:55 PM 28.4 °F 18.5 °F 19.4 °F 69% 29.84 in 10.0 mi North 11.5 mph - N/A   Clear
8:15 PM 26.6 °F 17.5 °F 19.4 °F 74% 29.85 in 10.0 mi North 9.2 mph - N/A   Clear
8:35 PM 26.6 °F 16.8 °F 19.4 °F 74% 29.86 in 10.0 mi North 10.4 mph - N/A   Scattered Clouds
8:55 PM 26.6 °F 17.5 °F 19.4 °F 74% 29.87 in 10.0 mi North 9.2 mph - N/A   Mostly Cloudy
9:15 PM 26.6 °F 15.2 °F 19.4 °F 74% 29.87 in 10.0 mi North 13.8 mph - N/A   Overcast
9:35 PM 26.6 °F 16.2 °F 19.4 °F 74% 29.88 in 10.0 mi North 11.5 mph - N/A   Overcast
9:55 PM 26.6 °F 16.2 °F 19.4 °F 74% 29.89 in 10.0 mi North 11.5 mph 17.3 mph N/A   Overcast
10:15 PM 26.6 °F 16.8 °F 19.4 °F 74% 29.90 in 10.0 mi North 10.4 mph - N/A   Overcast
10:35 PM 26.6 °F 16.8 °F 21.2 °F 80% 29.91 in 10.0 mi North 10.4 mph - N/A   Overcast
10:55 PM 26.6 °F 15.2 °F 21.2 °F 80% 29.92 in 10.0 mi North 13.8 mph 18.4 mph N/A   Overcast
11:15 PM 28.4 °F 17.5 °F 21.2 °F 74% 29.92 in 10.0 mi North 13.8 mph - N/A   Overcast
11:35 PM 28.4 °F 17.0 °F 21.2 °F 74% 29.92 in 10.0 mi North 15.0 mph 20.7 mph N/A   Overcast
11:55 PM 28.4 °F 16.2 °F 21.2 °F 74% 29.93 in 10.0 mi North 17.3 mph - N/A   Overcast